User: anonymous   Login
Location: Boiro
(42.6475°N, 8.8834°W)
Time: 01:36:12
(UTC+02:00)
Language:

Oscar 11 - Orbit

View from above orbital plane
View from above orbital plane
View from above satellite
View from above satellite

Ground track
Ground track

The orbit data is extracted from the following two-line orbital elements,

1 14781U 84021B   24114.50175739  .00003711  00000-0  42605-3 0  9997
2 14781  97.7007  85.4405 0006464 253.8462 106.2042 14.86422689140368
Epoch (UTC): 23 April 2024 12:02:31
Eccentricity: 0.0006464
inclination: 97.7007°
perigee height: 604 km
apogee height: 613 km
right ascension of ascending node: 85.4405°
argument of perigee: 253.8462°
revolutions per day: 14.86422689
mean anomaly at epoch: 106.2042°
orbit number at epoch: 14036

The dashed part of the orbit path shows where the satellite is in the earth's shadow,  

DLR